Thunderstorms From: 21-05-2018 15:00 Until: 22-05-2018 15:00 warning for: Thunderstorms Level: Yellow info button

Although rather usual in this region, locally or potentially dangerous phenomena are expected. (such as local winds, summer thunderstorms, rising streams or high waves) Be aware and pay attention to the latest weather updates, especially if you carry out activities exposed to weather or close to a stream or shoreline. 


Meteo18 Weather Cam more information Meteo18 Weather Cam


warning for Thunderstorms more information blitzortung!


Rain radar more information rain snow radar


Visit our other weather sites:

Template documentation
and downloads

And another site



Weather Underground History page Text

Daily Summary for July 2, 2017 Units:  Both    English   Metric
« Previous Day
Next Day »
Daily Weekly Monthly Yearly Custom
  High: Low: Average:
Temperature: TemperatureC °F /  -17.8 °C 13.4 °F /  -10.3 °C 15.2 °F /  -9.3 °C
Dew Point: DewpointC °F /  -17.8 °C 12.2 °F /  -11 °C 13.8 °F /  -10.1 °C
Humidity: Humidity % 83 % 91 %
Wind Speed: WindSpeedKMH mph /  0 km/h - 4.4 mph /  7.1 km/h
Wind Gust: WindSpeedGustKMH mph /  0 km/h - -
Wind:- - WSW
Pressure: PressurehPa in /  0 hPa 1022.9 in /  34635.4 hPa -
Precipitation: 0.3 in /  7.62 mm    
Historical Graphs
 
 
Tabular Data for July 2, 2017
Time Temperature Dew Point Pressure Wind Wind Speed Wind Gust Humidity Rainfall Rate (Hourly)
TemperatureC °F /  -17.8 °C DewpointC °F /  -17.8 °C PressurehPa in /  0 hPa Calm     Humidity % HourlyPrecipMM in /  0 mm
00:02 14.8 °F /  -9.6 °C 13.8 °F /  -10.1 °C 1022.9 in /  34635.4 hPa Calm   3.2 mph /  5.1 km/h 94 % 0.0 in /  0 mm
00:07 14.8 °F /  -9.6 °C 14.0 °F /  -10 °C 1022.9 in /  34635.4 hPa SSE 1.6 mph /  2.6 km/h 3.2 mph /  5.1 km/h 95 % 0.0 in /  0 mm
00:12 14.8 °F /  -9.6 °C 14.0 °F /  -10 °C 1022.9 in /  34635.4 hPa Calm   3.2 mph /  5.1 km/h 95 % 0.0 in /  0 mm
00:17 14.8 °F /  -9.6 °C 14.0 °F /  -10 °C 1022.9 in /  34635.4 hPa WSW 1.6 mph /  2.6 km/h 3.2 mph /  5.1 km/h 95 % 0.0 in /  0 mm
00:22 14.7 °F /  -9.6 °C 13.9 °F /  -10.1 °C 1022.9 in /  34635.4 hPa Calm   3.2 mph /  5.1 km/h 95 % 0.0 in /  0 mm
00:27 14.8 °F /  -9.6 °C 14.2 °F /  -9.9 °C 1022.9 in /  34635.4 hPa West 1.6 mph /  2.6 km/h 3.2 mph /  5.1 km/h 96 % 0.0 in /  0 mm
00:32 14.8 °F /  -9.6 °C 14.0 °F /  -10 °C 1022.9 in /  34635.4 hPa WNW 3.2 mph /  5.1 km/h 3.2 mph /  5.1 km/h 95 % 0.0 in /  0 mm
00:37 14.7 °F /  -9.6 °C 13.9 °F /  -10.1 °C 1022.9 in /  34635.4 hPa WNW 1.6 mph /  2.6 km/h 4.8 mph /  7.7 km/h 95 % 0.0 in /  0 mm
00:42 14.6 °F /  -9.7 °C 13.8 °F /  -10.1 °C 1022.9 in /  34635.4 hPa Calm   4.8 mph /  7.7 km/h 95 % 0.0 in /  0 mm
00:52 14.6 °F /  -9.7 °C 14.0 °F /  -10 °C 1022.9 in /  34635.4 hPa Calm   4.8 mph /  7.7 km/h 96 % 0.0 in /  0 mm
00:57 14.7 °F /  -9.6 °C 14.1 °F /  -9.9 °C 1022.9 in /  34635.4 hPa Calm   1.6 mph /  2.6 km/h 96 % 0.0 in /  0 mm
01:02 14.7 °F /  -9.6 °C 14.1 °F /  -9.9 °C 1022.9 in /  34635.4 hPa Calm     96 % 0.0 in /  0 mm
01:07 14.7 °F /  -9.6 °C 14.1 °F /  -9.9 °C 1022.9 in /  34635.4 hPa Calm     96 % 0.0 in /  0 mm
01:12 14.6 °F /  -9.7 °C 13.8 °F /  -10.1 °C 1022.9 in /  34635.4 hPa WNW 3.2 mph /  5.1 km/h   95 % 0.0 in /  0 mm
01:22 14.8 °F /  -9.6 °C 14.2 °F /  -9.9 °C 1023.2 in /  34645.6 hPa SW 1.6 mph /  2.6 km/h 3.2 mph /  5.1 km/h 96 % 0.0 in /  0 mm
01:32 14.8 °F /  -9.6 °C 14.0 °F /  -10 °C 1022.9 in /  34635.4 hPa West 1.6 mph /  2.6 km/h 6.4 mph /  10.3 km/h 95 % 0.0 in /  0 mm
01:37 14.9 °F /  -9.5 °C 14.1 °F /  -9.9 °C 1022.9 in /  34635.4 hPa Calm   6.4 mph /  10.3 km/h 95 % 0.0 in /  0 mm
01:42 14.9 °F /  -9.5 °C 14.1 °F /  -9.9 °C 1022.9 in /  34635.4 hPa Calm   6.4 mph /  10.3 km/h 95 % 0.0 in /  0 mm
01:47 14.9 °F /  -9.5 °C 14.1 °F /  -9.9 °C 1023.2 in /  34645.6 hPa Calm   6.4 mph /  10.3 km/h 95 % 0.0 in /  0 mm
01:52 14.9 °F /  -9.5 °C 14.1 °F /  -9.9 °C 1023.2 in /  34645.6 hPa WNW 1.6 mph /  2.6 km/h 3.2 mph /  5.1 km/h 95 % 0.0 in /  0 mm
01:57 14.9 °F /  -9.5 °C 14.1 °F /  -9.9 °C 1023.2 in /  34645.6 hPa Calm   4.8 mph /  7.7 km/h 95 % 0.0 in /  0 mm
02:02 15.0 °F /  -9.4 °C 14.2 °F /  -9.9 °C 1023.2 in /  34645.6 hPa West 1.6 mph /  2.6 km/h 4.8 mph /  7.7 km/h 95 % 0.0 in /  0 mm
02:07 15.1 °F /  -9.4 °C 14.1 °F /  -9.9 °C 1023.2 in /  34645.6 hPa WNW 4.8 mph /  7.7 km/h 4.8 mph /  7.7 km/h 94 % 0.0 in /  0 mm
02:12 15.1 °F /  -9.4 °C 14.1 °F /  -9.9 °C 1023.2 in /  34645.6 hPa NW 3.2 mph /  5.1 km/h 12.9 mph /  20.8 km/h 94 % 0.0 in /  0 mm
02:17 15.1 °F /  -9.4 °C 14.1 °F /  -9.9 °C 1023.2 in /  34645.6 hPa NNE 3.2 mph /  5.1 km/h 12.9 mph /  20.8 km/h 94 % 0.0 in /  0 mm
02:22 15.2 °F /  -9.3 °C 14.1 °F /  -9.9 °C 1023.2 in /  34645.6 hPa Calm   12.9 mph /  20.8 km/h 93 % 0.0 in /  0 mm
02:32 15.2 °F /  -9.3 °C 14.1 °F /  -9.9 °C 1023.2 in /  34645.6 hPa Calm   11.3 mph /  18.2 km/h 93 % 0.0 in /  0 mm
02:37 15.1 °F /  -9.4 °C 14.0 °F /  -10 °C 1023.2 in /  34645.6 hPa WNW 3.2 mph /  5.1 km/h 8.0 mph /  12.9 km/h 93 % 0.0 in /  0 mm
02:42 15.1 °F /  -9.4 °C 14.0 °F /  -10 °C 1023.2 in /  34645.6 hPa WSW 3.2 mph /  5.1 km/h 9.7 mph /  15.6 km/h 93 % 0.0 in /  0 mm
02:47 15.1 °F /  -9.4 °C 14.0 °F /  -10 °C 1023.2 in /  34645.6 hPa West 3.2 mph /  5.1 km/h 9.7 mph /  15.6 km/h 93 % 0.0 in /  0 mm
02:52 15.1 °F /  -9.4 °C 14.0 °F /  -10 °C 1023.2 in /  34645.6 hPa WSW 3.2 mph /  5.1 km/h 9.7 mph /  15.6 km/h 93 % 0.0 in /  0 mm
02:57 15.0 °F /  -9.4 °C 13.9 °F /  -10.1 °C 1023.2 in /  34645.6 hPa WNW 8.0 mph /  12.9 km/h 8.0 mph /  12.9 km/h 93 % 0.0 in /  0 mm
03:02 14.9 °F /  -9.5 °C 13.8 °F /  -10.1 °C 1023.2 in /  34645.6 hPa WNW 3.2 mph /  5.1 km/h 12.9 mph /  20.8 km/h 93 % 0.0 in /  0 mm
03:07 14.9 °F /  -9.5 °C 13.8 °F /  -10.1 °C 1023.2 in /  34645.6 hPa WNW 1.6 mph /  2.6 km/h 12.9 mph /  20.8 km/h 93 % 0.0 in /  0 mm
03:12 14.8 °F /  -9.6 °C 13.8 °F /  -10.1 °C 1023.2 in /  34645.6 hPa Calm   12.9 mph /  20.8 km/h 94 % 0.0 in /  0 mm
03:17 14.8 °F /  -9.6 °C 13.8 °F /  -10.1 °C 1023.2 in /  34645.6 hPa Calm   6.4 mph /  10.3 km/h 94 % 0.0 in /  0 mm
03:22 14.8 °F /  -9.6 °C 13.8 °F /  -10.1 °C 1023.2 in /  34645.6 hPa WNW 3.2 mph /  5.1 km/h 4.8 mph /  7.7 km/h 94 % 0.0 in /  0 mm
03:27 14.7 °F /  -9.6 °C 13.7 °F /  -10.2 °C 1023.2 in /  34645.6 hPa West 1.6 mph /  2.6 km/h 3.2 mph /  5.1 km/h 94 % 0.0 in /  0 mm
03:32 14.7 °F /  -9.6 °C 13.7 °F /  -10.2 °C 1023.2 in /  34645.6 hPa West 1.6 mph /  2.6 km/h 6.4 mph /  10.3 km/h 94 % 0.0 in /  0 mm
03:37 14.7 °F /  -9.6 °C 13.7 °F /  -10.2 °C 1023.2 in /  34645.6 hPa Calm   6.4 mph /  10.3 km/h 94 % 0.0 in /  0 mm
03:42 14.7 °F /  -9.6 °C 13.7 °F /  -10.2 °C 1023.2 in /  34645.6 hPa Calm   4.8 mph /  7.7 km/h 94 % 0.0 in /  0 mm
03:47 14.7 °F /  -9.6 °C 13.7 °F /  -10.2 °C 1023.6 in /  34659.1 hPa WNW 4.8 mph /  7.7 km/h 4.8 mph /  7.7 km/h 94 % 0.0 in /  0 mm
03:52 14.7 °F /  -9.6 °C 13.9 °F /  -10.1 °C 1023.2 in /  34645.6 hPa WNW 3.2 mph /  5.1 km/h 6.4 mph /  10.3 km/h 95 % 0.0 in /  0 mm
03:57 14.7 °F /  -9.6 °C 13.7 °F /  -10.2 °C 1023.2 in /  34645.6 hPa WNW 3.2 mph /  5.1 km/h 6.4 mph /  10.3 km/h 94 % 0.0 in /  0 mm
04:02 14.7 °F /  -9.6 °C 13.7 °F /  -10.2 °C 1023.2 in /  34645.6 hPa Calm   6.4 mph /  10.3 km/h 94 % 0.0 in /  0 mm
04:07 14.7 °F /  -9.6 °C 13.7 °F /  -10.2 °C 1023.2 in /  34645.6 hPa NW 1.6 mph /  2.6 km/h 6.4 mph /  10.3 km/h 94 % 0.0 in /  0 mm
04:17 14.7 °F /  -9.6 °C 13.7 °F /  -10.2 °C 1023.6 in /  34659.1 hPa West 1.6 mph /  2.6 km/h 8.0 mph /  12.9 km/h 94 % 0.0 in /  0 mm
04:22 14.7 °F /  -9.6 °C 13.7 °F /  -10.2 °C 1023.6 in /  34659.1 hPa Calm   8.0 mph /  12.9 km/h 94 % 0.0 in /  0 mm
04:32 14.6 °F /  -9.7 °C 13.6 °F /  -10.2 °C 1023.6 in /  34659.1 hPa WNW 1.6 mph /  2.6 km/h 9.7 mph /  15.6 km/h 94 % 0.0 in /  0 mm
04:37 14.6 °F /  -9.7 °C 13.6 °F /  -10.2 °C 1023.6 in /  34659.1 hPa North 1.6 mph /  2.6 km/h 9.7 mph /  15.6 km/h 94 % 0.0 in /  0 mm
04:42 14.6 °F /  -9.7 °C 13.6 °F /  -10.2 °C 1023.6 in /  34659.1 hPa Calm   9.7 mph /  15.6 km/h 94 % 0.0 in /  0 mm
04:47 14.6 °F /  -9.7 °C 13.6 °F /  -10.2 °C 1023.6 in /  34659.1 hPa Calm   6.4 mph /  10.3 km/h 94 % 0.0 in /  0 mm
04:52 14.6 °F /  -9.7 °C 13.6 °F /  -10.2 °C 1023.6 in /  34659.1 hPa Calm   6.4 mph /  10.3 km/h 94 % 0.0 in /  0 mm
04:57 14.5 °F /  -9.7 °C 13.5 °F /  -10.3 °C 1023.6 in /  34659.1 hPa SW 3.2 mph /  5.1 km/h 3.2 mph /  5.1 km/h 94 % 0.0 in /  0 mm
05:02 14.5 °F /  -9.7 °C 13.5 °F /  -10.3 °C 1023.6 in /  34659.1 hPa West 3.2 mph /  5.1 km/h 6.4 mph /  10.3 km/h 94 % 0.0 in /  0 mm
05:07 14.4 °F /  -9.8 °C 13.4 °F /  -10.3 °C 1023.6 in /  34659.1 hPa WSW 6.4 mph /  10.3 km/h 11.3 mph /  18.2 km/h 94 % 0.0 in /  0 mm
05:12 14.5 °F /  -9.7 °C 13.5 °F /  -10.3 °C 1023.6 in /  34659.1 hPa West 4.8 mph /  7.7 km/h 12.9 mph /  20.8 km/h 94 % 0.0 in /  0 mm
05:17 14.5 °F /  -9.7 °C 13.5 °F /  -10.3 °C 1023.9 in /  34669.3 hPa WNW 4.8 mph /  7.7 km/h 12.9 mph /  20.8 km/h 94 % 0.0 in /  0 mm
05:22 14.4 °F /  -9.8 °C 13.4 °F /  -10.3 °C 1023.9 in /  34669.3 hPa WNW 3.2 mph /  5.1 km/h 12.9 mph /  20.8 km/h 94 % 0.0 in /  0 mm
05:27 14.4 °F /  -9.8 °C 13.4 °F /  -10.3 °C 1023.9 in /  34669.3 hPa West 4.8 mph /  7.7 km/h 9.7 mph /  15.6 km/h 94 % 0.0 in /  0 mm
05:32 14.3 °F /  -9.8 °C 13.3 °F /  -10.4 °C 1023.6 in /  34659.1 hPa WNW 4.8 mph /  7.7 km/h 8.0 mph /  12.9 km/h 94 % 0.0 in /  0 mm
05:37 14.2 °F /  -9.9 °C 13.2 °F /  -10.4 °C 1023.9 in /  34669.3 hPa WNW 3.2 mph /  5.1 km/h 8.0 mph /  12.9 km/h 94 % 0.0 in /  0 mm
05:42 14.1 °F /  -9.9 °C 13.1 °F /  -10.5 °C 1023.9 in /  34669.3 hPa NW 3.2 mph /  5.1 km/h 11.3 mph /  18.2 km/h 94 % 0.0 in /  0 mm
05:47 14.0 °F /  -10 °C 13.0 °F /  -10.6 °C 1023.9 in /  34669.3 hPa WNW 9.7 mph /  15.6 km/h 11.3 mph /  18.2 km/h 94 % 0.0 in /  0 mm
05:52 13.9 °F /  -10.1 °C 12.9 °F /  -10.6 °C 1023.9 in /  34669.3 hPa West 3.2 mph /  5.1 km/h 14.5 mph /  23.3 km/h 94 % 0.0 in /  0 mm
05:57 13.8 °F /  -10.1 °C 12.9 °F /  -10.6 °C 1024.3 in /  34682.8 hPa WNW 8.0 mph /  12.9 km/h 14.5 mph /  23.3 km/h 94 % 0.0 in /  0 mm
06:02 13.8 °F /  -10.1 °C 12.9 °F /  -10.6 °C 1024.3 in /  34682.8 hPa WNW 1.6 mph /  2.6 km/h 14.5 mph /  23.3 km/h 94 % 0.0 in /  0 mm
06:07 13.7 °F /  -10.2 °C 12.8 °F /  -10.7 °C 1024.3 in /  34682.8 hPa WNW 1.6 mph /  2.6 km/h 12.9 mph /  20.8 km/h 94 % 0.0 in /  0 mm
06:12 13.7 °F /  -10.2 °C 12.8 °F /  -10.7 °C 1024.3 in /  34682.8 hPa West 1.6 mph /  2.6 km/h 12.9 mph /  20.8 km/h 94 % 0.0 in /  0 mm
06:17 13.6 °F /  -10.2 °C 12.7 °F /  -10.7 °C 1024.3 in /  34682.8 hPa WSW 4.8 mph /  7.7 km/h 8.0 mph /  12.9 km/h 94 % 0.0 in /  0 mm
06:22 13.4 °F /  -10.3 °C 12.5 °F /  -10.8 °C 1024.3 in /  34682.8 hPa WNW 6.4 mph /  10.3 km/h 9.7 mph /  15.6 km/h 94 % 0.0 in /  0 mm
06:32 13.4 °F /  -10.3 °C 12.5 °F /  -10.8 °C 1024.3 in /  34682.8 hPa WNW 1.6 mph /  2.6 km/h 9.7 mph /  15.6 km/h 94 % 0.0 in /  0 mm
06:37 13.4 °F /  -10.3 °C 12.5 °F /  -10.8 °C 1024.3 in /  34682.8 hPa Calm   8.0 mph /  12.9 km/h 94 % 0.0 in /  0 mm
06:42 13.4 °F /  -10.3 °C 12.5 °F /  -10.8 °C 1024.3 in /  34682.8 hPa Calm   8.0 mph /  12.9 km/h 94 % 0.0 in /  0 mm
06:47 13.4 °F /  -10.3 °C 12.5 °F /  -10.8 °C 1024.3 in /  34682.8 hPa WSW 1.6 mph /  2.6 km/h 1.6 mph /  2.6 km/h 94 % 0.0 in /  0 mm
06:52 13.4 °F /  -10.3 °C 12.3 °F /  -10.9 °C 1024.3 in /  34682.8 hPa Calm   4.8 mph /  7.7 km/h 93 % 0.0 in /  0 mm
07:02 13.6 °F /  -10.2 °C 12.5 °F /  -10.8 °C 1024.3 in /  34682.8 hPa Calm   4.8 mph /  7.7 km/h 93 % 0.0 in /  0 mm
07:12 13.8 °F /  -10.1 °C 12.5 °F /  -10.8 °C 1024.3 in /  34682.8 hPa Calm   1.6 mph /  2.6 km/h 92 % 0.0 in /  0 mm
07:17 13.9 °F /  -10.1 °C 12.6 °F /  -10.8 °C 1024.3 in /  34682.8 hPa Calm   1.6 mph /  2.6 km/h 92 % 0.0 in /  0 mm
07:22 13.9 °F /  -10.1 °C 12.5 °F /  -10.8 °C 1024.3 in /  34682.8 hPa Calm   1.6 mph /  2.6 km/h 91 % 0.0 in /  0 mm
07:27 13.9 °F /  -10.1 °C 12.5 °F /  -10.8 °C 1024.3 in /  34682.8 hPa Calm   1.6 mph /  2.6 km/h 91 % 0.0 in /  0 mm
07:32 14.1 °F /  -9.9 °C 12.8 °F /  -10.7 °C 1024.6 in /  34693 hPa Calm     92 % 0.0 in /  0 mm
07:37 14.1 °F /  -9.9 °C 12.5 °F /  -10.8 °C 1024.6 in /  34693 hPa Calm     90 % 0.0 in /  0 mm
07:42 14.1 °F /  -9.9 °C 12.5 °F /  -10.8 °C 1024.3 in /  34682.8 hPa Calm   4.8 mph /  7.7 km/h 90 % 0.0 in /  0 mm
07:47 14.3 °F /  -9.8 °C 12.5 °F /  -10.8 °C 1024.6 in /  34693 hPa Calm   4.8 mph /  7.7 km/h 89 % 0.0 in /  0 mm
07:52 14.3 °F /  -9.8 °C 12.5 °F /  -10.8 °C 1024.6 in /  34693 hPa Calm   4.8 mph /  7.7 km/h 89 % 0.0 in /  0 mm
07:57 14.4 °F /  -9.8 °C 12.4 °F /  -10.9 °C 1024.6 in /  34693 hPa Calm   3.2 mph /  5.1 km/h 88 % 0.0 in /  0 mm
08:02 14.7 °F /  -9.6 °C 12.9 °F /  -10.6 °C 1024.6 in /  34693 hPa Calm   3.2 mph /  5.1 km/h 89 % 0.0 in /  0 mm
08:07 15.0 °F /  -9.4 °C 12.9 °F /  -10.6 °C 1024.6 in /  34693 hPa Calm   3.2 mph /  5.1 km/h 87 % 0.0 in /  0 mm
08:12 15.1 °F /  -9.4 °C 12.8 °F /  -10.7 °C 1024.6 in /  34693 hPa Calm   4.8 mph /  7.7 km/h 86 % 0.0 in /  0 mm
08:17 15.4 °F /  -9.2 °C 13.2 °F /  -10.4 °C 1024.6 in /  34693 hPa SSW 3.2 mph /  5.1 km/h 4.8 mph /  7.7 km/h 87 % 0.0 in /  0 mm
08:22 15.4 °F /  -9.2 °C 13.1 °F /  -10.5 °C 1024.6 in /  34693 hPa WSW 8.0 mph /  12.9 km/h 8.0 mph /  12.9 km/h 86 % 0.0 in /  0 mm
08:27 15.3 °F /  -9.3 °C 13.0 °F /  -10.6 °C 1024.6 in /  34693 hPa West 6.4 mph /  10.3 km/h 9.7 mph /  15.6 km/h 86 % 0.0 in /  0 mm
08:32 15.1 °F /  -9.4 °C 12.2 °F /  -11 °C 1024.6 in /  34693 hPa West 8.0 mph /  12.9 km/h 9.7 mph /  15.6 km/h 83 % 0.0 in /  0 mm
08:37 15.0 °F /  -9.4 °C 12.5 °F /  -10.8 °C 1024.6 in /  34693 hPa WSW 4.8 mph /  7.7 km/h 11.3 mph /  18.2 km/h 85 % 0.0 in /  0 mm
08:42 14.8 °F /  -9.6 °C 12.3 °F /  -10.9 °C 1024.6 in /  34693 hPa WSW 9.7 mph /  15.6 km/h 11.3 mph /  18.2 km/h 85 % 0.0 in /  0 mm
08:47 14.8 °F /  -9.6 °C 12.5 °F /  -10.8 °C 1024.6 in /  34693 hPa West 4.8 mph /  7.7 km/h 11.3 mph /  18.2 km/h 86 % 0.0 in /  0 mm
08:52 14.7 °F /  -9.6 °C 12.4 °F /  -10.9 °C 1024.9 in /  34703.1 hPa SSW 6.4 mph /  10.3 km/h 11.3 mph /  18.2 km/h 86 % 0.0 in /  0 mm
08:57 14.6 °F /  -9.7 °C 12.3 °F /  -10.9 °C 1024.9 in /  34703.1 hPa WSW 11.3 mph /  18.2 km/h 12.9 mph /  20.8 km/h 86 % 0.0 in /  0 mm
09:02 14.5 °F /  -9.7 °C 12.2 °F /  -11 °C 1024.9 in /  34703.1 hPa SW 6.4 mph /  10.3 km/h 12.9 mph /  20.8 km/h 86 % 0.0 in /  0 mm
09:12 14.6 °F /  -9.7 °C 12.6 °F /  -10.8 °C 1024.9 in /  34703.1 hPa SW 6.4 mph /  10.3 km/h 11.3 mph /  18.2 km/h 88 % 0.0 in /  0 mm
09:17 14.4 °F /  -9.8 °C 12.4 °F /  -10.9 °C 1024.9 in /  34703.1 hPa WSW 8.0 mph /  12.9 km/h 11.3 mph /  18.2 km/h 88 % 0.0 in /  0 mm
09:22 14.3 °F /  -9.8 °C 12.5 °F /  -10.8 °C 1024.9 in /  34703.1 hPa SW 8.0 mph /  12.9 km/h 12.9 mph /  20.8 km/h 89 % 0.0 in /  0 mm
09:27 14.3 °F /  -9.8 °C 12.5 °F /  -10.8 °C 1024.9 in /  34703.1 hPa WSW 9.7 mph /  15.6 km/h 12.9 mph /  20.8 km/h 89 % 0.0 in /  0 mm
09:32 14.2 °F /  -9.9 °C 12.2 °F /  -11 °C 1024.9 in /  34703.1 hPa SSE 3.2 mph /  5.1 km/h 14.5 mph /  23.3 km/h 88 % 0.0 in /  0 mm
09:42 14.4 °F /  -9.8 °C 12.4 °F /  -10.9 °C 1024.9 in /  34703.1 hPa SW 8.0 mph /  12.9 km/h 14.5 mph /  23.3 km/h 88 % 0.0 in /  0 mm
09:47 14.4 °F /  -9.8 °C 12.3 °F /  -10.9 °C 1024.9 in /  34703.1 hPa SW 3.2 mph /  5.1 km/h 12.9 mph /  20.8 km/h 87 % 0.0 in /  0 mm
09:52 14.6 °F /  -9.7 °C 12.6 °F /  -10.8 °C 1024.9 in /  34703.1 hPa WSW 8.0 mph /  12.9 km/h 12.9 mph /  20.8 km/h 88 % 0.0 in /  0 mm
09:57 14.6 °F /  -9.7 °C 12.5 °F /  -10.8 °C 1024.9 in /  34703.1 hPa WNW 4.8 mph /  7.7 km/h 12.9 mph /  20.8 km/h 87 % 0.0 in /  0 mm
10:02 14.7 °F /  -9.6 °C 12.6 °F /  -10.8 °C 1024.9 in /  34703.1 hPa WSW 4.8 mph /  7.7 km/h 16.1 mph /  25.9 km/h 87 % 0.0 in /  0 mm
10:12 14.7 °F /  -9.6 °C 12.6 °F /  -10.8 °C 1025.3 in /  34716.7 hPa WSW 12.9 mph /  20.8 km/h 16.1 mph /  25.9 km/h 87 % 0.0 in /  0 mm
10:17 14.7 °F /  -9.6 °C 12.6 °F /  -10.8 °C 1025.3 in /  34716.7 hPa WSW 6.4 mph /  10.3 km/h 14.5 mph /  23.3 km/h 87 % 0.0 in /  0 mm
10:22 14.6 °F /  -9.7 °C 12.5 °F /  -10.8 °C 1025.3 in /  34716.7 hPa SW 11.3 mph /  18.2 km/h 12.9 mph /  20.8 km/h 87 % 0.0 in /  0 mm
10:27 14.5 °F /  -9.7 °C 12.4 °F /  -10.9 °C 1025.3 in /  34716.7 hPa WSW 6.4 mph /  10.3 km/h 12.9 mph /  20.8 km/h 87 % 0.0 in /  0 mm
10:32 14.4 °F /  -9.8 °C 12.3 °F /  -10.9 °C 1025.3 in /  34716.7 hPa WSW 11.3 mph /  18.2 km/h 16.1 mph /  25.9 km/h 87 % 0.0 in /  0 mm
10:37 14.5 °F /  -9.7 °C 12.5 °F /  -10.8 °C 1025.3 in /  34716.7 hPa SW 1.6 mph /  2.6 km/h 16.1 mph /  25.9 km/h 88 % 0.0 in /  0 mm
10:42 14.6 °F /  -9.7 °C 12.5 °F /  -10.8 °C 1025.3 in /  34716.7 hPa SSW 8.0 mph /  12.9 km/h 16.1 mph /  25.9 km/h 87 % 0.0 in /  0 mm
10:47 14.6 °F /  -9.7 °C 12.5 °F /  -10.8 °C 1025.3 in /  34716.7 hPa West 3.2 mph /  5.1 km/h 12.9 mph /  20.8 km/h 87 % 0.0 in /  0 mm
10:52 14.6 °F /  -9.7 °C 12.6 °F /  -10.8 °C 1025.3 in /  34716.7 hPa West 4.8 mph /  7.7 km/h 12.9 mph /  20.8 km/h 88 % 0.0 in /  0 mm
10:57 14.6 °F /  -9.7 °C 12.6 °F /  -10.8 °C 1025.3 in /  34716.7 hPa WSW 4.8 mph /  7.7 km/h 12.9 mph /  20.8 km/h 88 % 0.0 in /  0 mm
11:02 14.7 °F /  -9.6 °C 12.7 °F /  -10.7 °C 1025.3 in /  34716.7 hPa West 3.2 mph /  5.1 km/h 12.9 mph /  20.8 km/h 88 % 0.0 in /  0 mm
11:12 14.4 °F /  -9.8 °C 12.3 °F /  -10.9 °C 1025.6 in /  34726.8 hPa West 4.8 mph /  7.7 km/h 16.1 mph /  25.9 km/h 87 % 0.3 in /  7.62 mm
11:17 14.4 °F /  -9.8 °C 12.4 °F /  -10.9 °C 1025.6 in /  34726.8 hPa West 6.4 mph /  10.3 km/h 16.1 mph /  25.9 km/h 88 % 0.3 in /  7.62 mm
11:22 14.3 °F /  -9.8 °C 12.3 °F /  -10.9 °C 1025.6 in /  34726.8 hPa West 4.8 mph /  7.7 km/h 16.1 mph /  25.9 km/h 88 % 0.3 in /  7.62 mm
11:32 14.3 °F /  -9.8 °C 12.5 °F /  -10.8 °C 1025.6 in /  34726.8 hPa WSW 6.4 mph /  10.3 km/h 11.3 mph /  18.2 km/h 89 % 0.3 in /  7.62 mm
11:37 14.3 °F /  -9.8 °C 12.5 °F /  -10.8 °C 1025.6 in /  34726.8 hPa WSW 4.8 mph /  7.7 km/h 11.3 mph /  18.2 km/h 89 % 0.3 in /  7.62 mm
11:42 14.3 °F /  -9.8 °C 12.7 °F /  -10.7 °C 1025.6 in /  34726.8 hPa WSW 4.8 mph /  7.7 km/h 11.3 mph /  18.2 km/h 90 % 0.3 in /  7.62 mm
11:47 14.2 °F /  -9.9 °C 12.4 °F /  -10.9 °C 1025.6 in /  34726.8 hPa WNW 8.0 mph /  12.9 km/h 14.5 mph /  23.3 km/h 89 % 0.3 in /  7.62 mm
11:52 14.2 °F /  -9.9 °C 12.4 °F /  -10.9 °C 1025.6 in /  34726.8 hPa WSW 3.2 mph /  5.1 km/h 14.5 mph /  23.3 km/h 89 % 0.3 in /  7.62 mm
11:57 14.3 °F /  -9.8 °C 12.7 °F /  -10.7 °C 1025.6 in /  34726.8 hPa WSW 3.2 mph /  5.1 km/h 14.5 mph /  23.3 km/h 90 % 0.3 in /  7.62 mm
12:02 14.3 °F /  -9.8 °C 12.7 °F /  -10.7 °C 1025.6 in /  34726.8 hPa SSW 3.2 mph /  5.1 km/h 11.3 mph /  18.2 km/h 90 % 0.3 in /  7.62 mm
12:07 14.4 °F /  -9.8 °C 12.8 °F /  -10.7 °C 1025.6 in /  34726.8 hPa WSW 6.4 mph /  10.3 km/h 11.3 mph /  18.2 km/h 90 % 0.3 in /  7.62 mm
12:12 14.4 °F /  -9.8 °C 12.8 °F /  -10.7 °C 1025.6 in /  34726.8 hPa WSW 1.6 mph /  2.6 km/h 11.3 mph /  18.2 km/h 90 % 0.0 in /  0 mm
12:17 14.6 °F /  -9.7 °C 13.0 °F /  -10.6 °C 1025.6 in /  34726.8 hPa SW 8.0 mph /  12.9 km/h 11.3 mph /  18.2 km/h 90 % 0.0 in /  0 mm
12:22 14.5 °F /  -9.7 °C 12.9 °F /  -10.6 °C 1025.6 in /  34726.8 hPa South 9.7 mph /  15.6 km/h 14.5 mph /  23.3 km/h 90 % 0.0 in /  0 mm
12:32 14.4 °F /  -9.8 °C 12.8 °F /  -10.7 °C 1025.6 in /  34726.8 hPa SW 3.2 mph /  5.1 km/h 14.5 mph /  23.3 km/h 90 % 0.0 in /  0 mm
12:42 14.4 °F /  -9.8 °C 12.9 °F /  -10.6 °C 1025.6 in /  34726.8 hPa SW 11.3 mph /  18.2 km/h 16.1 mph /  25.9 km/h 91 % 0.0 in /  0 mm
12:47 14.4 °F /  -9.8 °C 13.1 °F /  -10.5 °C 1025.6 in /  34726.8 hPa SW 16.1 mph /  25.9 km/h 16.1 mph /  25.9 km/h 92 % 0.0 in /  0 mm
12:57 14.6 °F /  -9.7 °C 13.3 °F /  -10.4 °C 1025.6 in /  34726.8 hPa SW 6.4 mph /  10.3 km/h 16.1 mph /  25.9 km/h 92 % 0.0 in /  0 mm
13:02 14.7 °F /  -9.6 °C 13.4 °F /  -10.3 °C 1025.6 in /  34726.8 hPa West 12.9 mph /  20.8 km/h 16.1 mph /  25.9 km/h 92 % 0.0 in /  0 mm
13:07 14.8 °F /  -9.6 °C 13.5 °F /  -10.3 °C 1025.6 in /  34726.8 hPa WSW 9.7 mph /  15.6 km/h 12.9 mph /  20.8 km/h 92 % 0.0 in /  0 mm
13:12 14.9 °F /  -9.5 °C 13.6 °F /  -10.2 °C 1025.6 in /  34726.8 hPa SSW 1.6 mph /  2.6 km/h 12.9 mph /  20.8 km/h 92 % 0.0 in /  0 mm
13:17 14.8 °F /  -9.6 °C 13.5 °F /  -10.3 °C 1025.6 in /  34726.8 hPa SSW 8.0 mph /  12.9 km/h 16.1 mph /  25.9 km/h 92 % 0.0 in /  0 mm
13:22 14.8 °F /  -9.6 °C 13.5 °F /  -10.3 °C 1025.6 in /  34726.8 hPa WSW 4.8 mph /  7.7 km/h 16.1 mph /  25.9 km/h 92 % 0.0 in /  0 mm
13:27 14.9 °F /  -9.5 °C 13.6 °F /  -10.2 °C 1025.6 in /  34726.8 hPa SW 12.9 mph /  20.8 km/h 16.1 mph /  25.9 km/h 92 % 0.0 in /  0 mm
13:32 14.9 °F /  -9.5 °C 13.6 °F /  -10.2 °C 1025.6 in /  34726.8 hPa SW 8.0 mph /  12.9 km/h 16.1 mph /  25.9 km/h 92 % 0.0 in /  0 mm
13:37 14.9 °F /  -9.5 °C 13.6 °F /  -10.2 °C 1025.6 in /  34726.8 hPa West 4.8 mph /  7.7 km/h 14.5 mph /  23.3 km/h 92 % 0.0 in /  0 mm
13:42 15.0 °F /  -9.4 °C 13.7 °F /  -10.2 °C 1025.3 in /  34716.7 hPa West 8.0 mph /  12.9 km/h 12.9 mph /  20.8 km/h 92 % 0.0 in /  0 mm
13:47 15.1 °F /  -9.4 °C 13.8 °F /  -10.1 °C 1025.3 in /  34716.7 hPa SW 11.3 mph /  18.2 km/h 12.9 mph /  20.8 km/h 92 % 0.0 in /  0 mm
13:52 15.3 °F /  -9.3 °C 14.0 °F /  -10 °C 1025.3 in /  34716.7 hPa SW 3.2 mph /  5.1 km/h 12.9 mph /  20.8 km/h 92 % 0.0 in /  0 mm
13:57 15.2 °F /  -9.3 °C 13.7 °F /  -10.2 °C 1025.3 in /  34716.7 hPa WSW 8.0 mph /  12.9 km/h 16.1 mph /  25.9 km/h 91 % 0.0 in /  0 mm
14:02 15.2 °F /  -9.3 °C 13.9 °F /  -10.1 °C 1025.3 in /  34716.7 hPa SW 6.4 mph /  10.3 km/h 16.1 mph /  25.9 km/h 92 % 0.0 in /  0 mm
14:07 15.3 °F /  -9.3 °C 14.0 °F /  -10 °C 1025.3 in /  34716.7 hPa SW 8.0 mph /  12.9 km/h 16.1 mph /  25.9 km/h 92 % 0.0 in /  0 mm
14:12 15.4 °F /  -9.2 °C 14.1 °F /  -9.9 °C 1025.3 in /  34716.7 hPa SW 8.0 mph /  12.9 km/h 16.1 mph /  25.9 km/h 92 % 0.0 in /  0 mm
14:17 15.4 °F /  -9.2 °C 13.9 °F /  -10.1 °C 1025.3 in /  34716.7 hPa West 16.1 mph /  25.9 km/h 16.1 mph /  25.9 km/h 91 % 0.0 in /  0 mm
14:22 15.3 °F /  -9.3 °C 13.8 °F /  -10.1 °C 1025.3 in /  34716.7 hPa SW 8.0 mph /  12.9 km/h 16.1 mph /  25.9 km/h 91 % 0.0 in /  0 mm
14:32 15.3 °F /  -9.3 °C 13.8 °F /  -10.1 °C 1025.6 in /  34726.8 hPa West 9.7 mph /  15.6 km/h 19.3 mph /  31.1 km/h 91 % 0.0 in /  0 mm
14:37 15.3 °F /  -9.3 °C 13.8 °F /  -10.1 °C 1025.6 in /  34726.8 hPa WNW 9.7 mph /  15.6 km/h 19.3 mph /  31.1 km/h 91 % 0.0 in /  0 mm
14:42 15.2 °F /  -9.3 °C 13.7 °F /  -10.2 °C 1025.6 in /  34726.8 hPa WSW 11.3 mph /  18.2 km/h 17.7 mph /  28.5 km/h 91 % 0.0 in /  0 mm
14:47 15.2 °F /  -9.3 °C 13.9 °F /  -10.1 °C 1025.6 in /  34726.8 hPa WNW 6.4 mph /  10.3 km/h 17.7 mph /  28.5 km/h 92 % 0.0 in /  0 mm
14:52 15.2 °F /  -9.3 °C 13.7 °F /  -10.2 °C 1025.6 in /  34726.8 hPa WSW 6.4 mph /  10.3 km/h 17.7 mph /  28.5 km/h 91 % 0.0 in /  0 mm
14:57 15.2 °F /  -9.3 °C 13.9 °F /  -10.1 °C 1025.6 in /  34726.8 hPa WSW 8.0 mph /  12.9 km/h 17.7 mph /  28.5 km/h 92 % 0.0 in /  0 mm
15:02 15.2 °F /  -9.3 °C 13.9 °F /  -10.1 °C 1025.6 in /  34726.8 hPa West 4.8 mph /  7.7 km/h 17.7 mph /  28.5 km/h 92 % 0.0 in /  0 mm
15:12 15.3 °F /  -9.3 °C 14.2 °F /  -9.9 °C 1025.6 in /  34726.8 hPa West 8.0 mph /  12.9 km/h 17.7 mph /  28.5 km/h 93 % 0.0 in /  0 mm
15:17 15.4 °F /  -9.2 °C 14.3 °F /  -9.8 °C 1025.6 in /  34726.8 hPa West 8.0 mph /  12.9 km/h 17.7 mph /  28.5 km/h 93 % 0.0 in /  0 mm
15:22 15.4 °F /  -9.2 °C 14.1 °F /  -9.9 °C 1025.6 in /  34726.8 hPa WSW 6.4 mph /  10.3 km/h 16.1 mph /  25.9 km/h 92 % 0.0 in /  0 mm
15:27 15.6 °F /  -9.1 °C 14.5 °F /  -9.7 °C 1025.6 in /  34726.8 hPa WSW 6.4 mph /  10.3 km/h 16.1 mph /  25.9 km/h 93 % 0.0 in /  0 mm
15:32 15.6 °F /  -9.1 °C 14.3 °F /  -9.8 °C 1025.3 in /  34716.7 hPa West 6.4 mph /  10.3 km/h 16.1 mph /  25.9 km/h 92 % 0.0 in /  0 mm
15:37 15.6 °F /  -9.1 °C 14.1 °F /  -9.9 °C 1025.3 in /  34716.7 hPa West 4.8 mph /  7.7 km/h 16.1 mph /  25.9 km/h 91 % 0.0 in /  0 mm
15:42 15.7 °F /  -9.1 °C 14.4 °F /  -9.8 °C 1025.6 in /  34726.8 hPa WSW 8.0 mph /  12.9 km/h 14.5 mph /  23.3 km/h 92 % 0.0 in /  0 mm
15:47 15.6 °F /  -9.1 °C 14.1 °F /  -9.9 °C 1025.6 in /  34726.8 hPa West 4.8 mph /  7.7 km/h 14.5 mph /  23.3 km/h 91 % 0.0 in /  0 mm
15:52 15.6 °F /  -9.1 °C 14.1 °F /  -9.9 °C 1025.3 in /  34716.7 hPa SSW 8.0 mph /  12.9 km/h 14.5 mph /  23.3 km/h 91 % 0.0 in /  0 mm
15:57 15.4 °F /  -9.2 °C 13.9 °F /  -10.1 °C 1025.3 in /  34716.7 hPa WSW 9.7 mph /  15.6 km/h 16.1 mph /  25.9 km/h 91 % 0.0 in /  0 mm
16:02 15.5 °F /  -9.2 °C 14.2 °F /  -9.9 °C 1025.6 in /  34726.8 hPa SW 11.3 mph /  18.2 km/h 16.1 mph /  25.9 km/h 92 % 0.0 in /  0 mm
16:07 15.6 °F /  -9.1 °C 14.1 °F /  -9.9 °C 1025.6 in /  34726.8 hPa West 4.8 mph /  7.7 km/h 17.7 mph /  28.5 km/h 91 % 0.0 in /  0 mm
16:12 15.4 °F /  -9.2 °C 13.9 °F /  -10.1 °C 1025.6 in /  34726.8 hPa West 4.8 mph /  7.7 km/h 17.7 mph /  28.5 km/h 91 % 0.0 in /  0 mm
16:17 15.4 °F /  -9.2 °C 13.9 °F /  -10.1 °C 1025.6 in /  34726.8 hPa West 8.0 mph /  12.9 km/h 17.7 mph /  28.5 km/h 91 % 0.0 in /  0 mm
16:22 15.5 °F /  -9.2 °C 14.0 °F /  -10 °C 1025.6 in /  34726.8 hPa West 6.4 mph /  10.3 km/h 16.1 mph /  25.9 km/h 91 % 0.0 in /  0 mm
16:27 15.6 °F /  -9.1 °C 14.1 °F /  -9.9 °C 1025.6 in /  34726.8 hPa West 4.8 mph /  7.7 km/h 16.1 mph /  25.9 km/h 91 % 0.0 in /  0 mm
16:32 15.7 °F /  -9.1 °C 14.2 °F /  -9.9 °C 1025.6 in /  34726.8 hPa West 14.5 mph /  23.3 km/h 16.1 mph /  25.9 km/h 91 % 0.0 in /  0 mm
16:37 15.7 °F /  -9.1 °C 14.2 °F /  -9.9 °C 1025.6 in /  34726.8 hPa WSW 11.3 mph /  18.2 km/h 14.5 mph /  23.3 km/h 91 % 0.0 in /  0 mm
16:42 15.7 °F /  -9.1 °C 14.2 °F /  -9.9 °C 1025.6 in /  34726.8 hPa West 8.0 mph /  12.9 km/h 14.5 mph /  23.3 km/h 91 % 0.0 in /  0 mm
16:47 15.7 °F /  -9.1 °C 14.2 °F /  -9.9 °C 1025.6 in /  34726.8 hPa WSW 6.4 mph /  10.3 km/h 14.5 mph /  23.3 km/h 91 % 0.0 in /  0 mm
16:52 15.7 °F /  -9.1 °C 14.2 °F /  -9.9 °C 1025.6 in /  34726.8 hPa West 11.3 mph /  18.2 km/h 17.7 mph /  28.5 km/h 91 % 0.0 in /  0 mm
16:57 15.7 °F /  -9.1 °C 14.2 °F /  -9.9 °C 1025.6 in /  34726.8 hPa West 6.4 mph /  10.3 km/h 17.7 mph /  28.5 km/h 91 % 0.0 in /  0 mm
17:02 15.6 °F /  -9.1 °C 14.3 °F /  -9.8 °C 1025.6 in /  34726.8 hPa WNW 6.4 mph /  10.3 km/h 17.7 mph /  28.5 km/h 92 % 0.0 in /  0 mm
17:07 15.6 °F /  -9.1 °C 14.3 °F /  -9.8 °C 1025.6 in /  34726.8 hPa West 8.0 mph /  12.9 km/h 14.5 mph /  23.3 km/h 92 % 0.0 in /  0 mm
17:12 15.6 °F /  -9.1 °C 14.3 °F /  -9.8 °C 1025.6 in /  34726.8 hPa WSW 4.8 mph /  7.7 km/h 12.9 mph /  20.8 km/h 92 % 0.0 in /  0 mm
17:17 15.6 °F /  -9.1 °C 14.3 °F /  -9.8 °C 1025.6 in /  34726.8 hPa West 8.0 mph /  12.9 km/h 12.9 mph /  20.8 km/h 92 % 0.0 in /  0 mm
17:22 15.6 °F /  -9.1 °C 14.5 °F /  -9.7 °C 1025.6 in /  34726.8 hPa WSW 4.8 mph /  7.7 km/h 11.3 mph /  18.2 km/h 93 % 0.0 in /  0 mm
17:27 15.7 °F /  -9.1 °C 14.6 °F /  -9.7 °C 1025.6 in /  34726.8 hPa WSW 11.3 mph /  18.2 km/h 11.3 mph /  18.2 km/h 93 % 0.0 in /  0 mm
17:32 15.6 °F /  -9.1 °C 14.3 °F /  -9.8 °C 1025.6 in /  34726.8 hPa West 9.7 mph /  15.6 km/h 12.9 mph /  20.8 km/h 92 % 0.0 in /  0 mm
17:37 15.6 °F /  -9.1 °C 14.3 °F /  -9.8 °C 1025.6 in /  34726.8 hPa West 11.3 mph /  18.2 km/h 14.5 mph /  23.3 km/h 92 % 0.0 in /  0 mm
17:42 15.7 °F /  -9.1 °C 14.6 °F /  -9.7 °C 1025.6 in /  34726.8 hPa WSW 6.4 mph /  10.3 km/h 14.5 mph /  23.3 km/h 93 % 0.0 in /  0 mm
17:47 15.7 °F /  -9.1 °C 14.6 °F /  -9.7 °C 1025.6 in /  34726.8 hPa WNW 3.2 mph /  5.1 km/h 14.5 mph /  23.3 km/h 93 % 0.0 in /  0 mm
17:52 15.8 °F /  -9 °C 14.5 °F /  -9.7 °C 1025.6 in /  34726.8 hPa West 4.8 mph /  7.7 km/h 14.5 mph /  23.3 km/h 92 % 0.0 in /  0 mm
17:57 15.9 °F /  -8.9 °C 14.6 °F /  -9.7 °C 1025.6 in /  34726.8 hPa West 6.4 mph /  10.3 km/h 12.9 mph /  20.8 km/h 92 % 0.0 in /  0 mm
18:02 16.0 °F /  -8.9 °C 14.5 °F /  -9.7 °C 1025.6 in /  34726.8 hPa West 3.2 mph /  5.1 km/h 14.5 mph /  23.3 km/h 91 % 0.0 in /  0 mm
18:07 16.1 °F /  -8.8 °C 14.6 °F /  -9.7 °C 1025.6 in /  34726.8 hPa WNW 8.0 mph /  12.9 km/h 14.5 mph /  23.3 km/h 91 % 0.0 in /  0 mm
18:12 16.1 °F /  -8.8 °C 14.6 °F /  -9.7 °C 1025.3 in /  34716.7 hPa West 9.7 mph /  15.6 km/h 14.5 mph /  23.3 km/h 91 % 0.0 in /  0 mm
18:17 16.1 °F /  -8.8 °C 14.6 °F /  -9.7 °C 1025.3 in /  34716.7 hPa WSW 8.0 mph /  12.9 km/h 14.5 mph /  23.3 km/h 91 % 0.0 in /  0 mm
18:22 16.2 °F /  -8.8 °C 14.7 °F /  -9.6 °C 1025.3 in /  34716.7 hPa WNW 4.8 mph /  7.7 km/h 12.9 mph /  20.8 km/h 91 % 0.0 in /  0 mm
18:27 16.3 °F /  -8.7 °C 14.8 °F /  -9.6 °C 1025.3 in /  34716.7 hPa West 4.8 mph /  7.7 km/h 12.9 mph /  20.8 km/h 91 % 0.0 in /  0 mm
18:32 16.4 °F /  -8.7 °C 14.9 °F /  -9.5 °C 1025.3 in /  34716.7 hPa West 8.0 mph /  12.9 km/h 11.3 mph /  18.2 km/h 91 % 0.0 in /  0 mm
18:42 16.4 °F /  -8.7 °C 14.8 °F /  -9.6 °C 1025.3 in /  34716.7 hPa West 3.2 mph /  5.1 km/h 12.9 mph /  20.8 km/h 90 % 0.0 in /  0 mm
18:47 16.4 °F /  -8.7 °C 14.9 °F /  -9.5 °C 1025.3 in /  34716.7 hPa West 4.8 mph /  7.7 km/h 12.9 mph /  20.8 km/h 91 % 0.0 in /  0 mm
18:52 16.4 °F /  -8.7 °C 14.9 °F /  -9.5 °C 1025.3 in /  34716.7 hPa WSW 9.7 mph /  15.6 km/h 14.5 mph /  23.3 km/h 91 % 0.0 in /  0 mm
18:57 16.4 °F /  -8.7 °C 14.8 °F /  -9.6 °C 1025.3 in /  34716.7 hPa West 6.4 mph /  10.3 km/h 14.5 mph /  23.3 km/h 90 % 0.0 in /  0 mm
19:02 16.4 °F /  -8.7 °C 14.9 °F /  -9.5 °C 1025.6 in /  34726.8 hPa West 4.8 mph /  7.7 km/h 14.5 mph /  23.3 km/h 91 % 0.0 in /  0 mm
19:07 16.5 °F /  -8.6 °C 15.0 °F /  -9.4 °C 1025.3 in /  34716.7 hPa WNW 3.2 mph /  5.1 km/h 12.9 mph /  20.8 km/h 91 % 0.0 in /  0 mm
19:12 16.6 °F /  -8.6 °C 15.0 °F /  -9.4 °C 1025.3 in /  34716.7 hPa Calm   11.3 mph /  18.2 km/h 90 % 0.0 in /  0 mm
19:17 16.7 °F /  -8.5 °C 15.1 °F /  -9.4 °C 1025.3 in /  34716.7 hPa WSW 3.2 mph /  5.1 km/h 11.3 mph /  18.2 km/h 90 % 0.0 in /  0 mm
19:22 16.8 °F /  -8.4 °C 15.1 °F /  -9.4 °C 1025.3 in /  34716.7 hPa WSW 3.2 mph /  5.1 km/h 9.7 mph /  15.6 km/h 90 % 0.0 in /  0 mm
19:27 16.7 °F /  -8.5 °C 14.9 °F /  -9.5 °C 1025.3 in /  34716.7 hPa WSW 3.2 mph /  5.1 km/h 11.3 mph /  18.2 km/h 89 % 0.0 in /  0 mm
19:32 16.8 °F /  -8.4 °C 15.1 °F /  -9.4 °C 1025.3 in /  34716.7 hPa WSW 6.4 mph /  10.3 km/h 11.3 mph /  18.2 km/h 90 % 0.0 in /  0 mm
19:37 16.8 °F /  -8.4 °C 15.1 °F /  -9.4 °C 1025.3 in /  34716.7 hPa West 3.2 mph /  5.1 km/h 12.9 mph /  20.8 km/h 90 % 0.0 in /  0 mm
19:42 16.8 °F /  -8.4 °C 15.0 °F /  -9.4 °C 1025.3 in /  34716.7 hPa WSW 3.2 mph /  5.1 km/h 12.9 mph /  20.8 km/h 89 % 0.0 in /  0 mm
19:52 16.8 °F /  -8.4 °C 15.0 °F /  -9.4 °C 1025.3 in /  34716.7 hPa SW 1.6 mph /  2.6 km/h 12.9 mph /  20.8 km/h 89 % 0.0 in /  0 mm
19:57 16.9 °F /  -8.4 °C 15.2 °F /  -9.3 °C 1025.3 in /  34716.7 hPa SSW 3.2 mph /  5.1 km/h 8.0 mph /  12.9 km/h 90 % 0.0 in /  0 mm
20:02 17.0 °F /  -8.3 °C 15.2 °F /  -9.3 °C 1025.3 in /  34716.7 hPa WSW 3.2 mph /  5.1 km/h 8.0 mph /  12.9 km/h 89 % 0.0 in /  0 mm
20:07 17.1 °F /  -8.3 °C 15.3 °F /  -9.3 °C 1025.3 in /  34716.7 hPa West 3.2 mph /  5.1 km/h 8.0 mph /  12.9 km/h 89 % 0.0 in /  0 mm
20:12 17.1 °F /  -8.3 °C 15.3 °F /  -9.3 °C 1025.3 in /  34716.7 hPa West 3.2 mph /  5.1 km/h 8.0 mph /  12.9 km/h 89 % 0.0 in /  0 mm
20:17 17.1 °F /  -8.3 °C 15.3 °F /  -9.3 °C 1025.3 in /  34716.7 hPa SW 1.6 mph /  2.6 km/h 8.0 mph /  12.9 km/h 89 % 0.0 in /  0 mm
20:22 17.2 °F /  -8.2 °C 15.4 °F /  -9.2 °C 1025.3 in /  34716.7 hPa SW 3.2 mph /  5.1 km/h 8.0 mph /  12.9 km/h 89 % 0.0 in /  0 mm
20:32 17.1 °F /  -8.3 °C 15.3 °F /  -9.3 °C 1025.3 in /  34716.7 hPa West 4.8 mph /  7.7 km/h 4.8 mph /  7.7 km/h 89 % 0.0 in /  0 mm
20:37 17.1 °F /  -8.3 °C 15.3 °F /  -9.3 °C 1025.6 in /  34726.8 hPa Calm   6.4 mph /  10.3 km/h 89 % 0.0 in /  0 mm
20:42 17.1 °F /  -8.3 °C 15.3 °F /  -9.3 °C 1025.6 in /  34726.8 hPa WNW 1.6 mph /  2.6 km/h 6.4 mph /  10.3 km/h 89 % 0.0 in /  0 mm
20:47 17.1 °F /  -8.3 °C 15.3 °F /  -9.3 °C 1025.6 in /  34726.8 hPa SW 3.2 mph /  5.1 km/h 6.4 mph /  10.3 km/h 89 % 0.0 in /  0 mm
20:52 17.1 °F /  -8.3 °C 15.4 °F /  -9.2 °C 1025.6 in /  34726.8 hPa SW 3.2 mph /  5.1 km/h 6.4 mph /  10.3 km/h 90 % 0.0 in /  0 mm
20:57 17.0 °F /  -8.3 °C 15.3 °F /  -9.3 °C 1025.6 in /  34726.8 hPa WSW 1.6 mph /  2.6 km/h 6.4 mph /  10.3 km/h 90 % 0.0 in /  0 mm
21:02 17.0 °F /  -8.3 °C 15.3 °F /  -9.3 °C 1025.6 in /  34726.8 hPa WSW 3.2 mph /  5.1 km/h 6.4 mph /  10.3 km/h 90 % 0.0 in /  0 mm
21:07 16.9 °F /  -8.4 °C 15.2 °F /  -9.3 °C 1025.6 in /  34726.8 hPa SW 6.4 mph /  10.3 km/h 8.0 mph /  12.9 km/h 90 % 0.0 in /  0 mm
21:12 16.9 °F /  -8.4 °C 15.2 °F /  -9.3 °C 1025.6 in /  34726.8 hPa SW 1.6 mph /  2.6 km/h 8.0 mph /  12.9 km/h 90 % 0.0 in /  0 mm
21:17 16.9 °F /  -8.4 °C 15.2 °F /  -9.3 °C 1025.6 in /  34726.8 hPa West 1.6 mph /  2.6 km/h 8.0 mph /  12.9 km/h 90 % 0.0 in /  0 mm
21:22 16.9 °F /  -8.4 °C 15.4 °F /  -9.2 °C 1025.6 in /  34726.8 hPa WSW 4.8 mph /  7.7 km/h 8.0 mph /  12.9 km/h 91 % 0.0 in /  0 mm
21:27 16.8 °F /  -8.4 °C 15.3 °F /  -9.3 °C 1025.6 in /  34726.8 hPa SW 1.6 mph /  2.6 km/h 6.4 mph /  10.3 km/h 91 % 0.0 in /  0 mm
21:32 16.8 °F /  -8.4 °C 15.3 °F /  -9.3 °C 1025.6 in /  34726.8 hPa SW 3.2 mph /  5.1 km/h 6.4 mph /  10.3 km/h 91 % 0.0 in /  0 mm
21:42 16.7 °F /  -8.5 °C 15.4 °F /  -9.2 °C 1026.0 in /  34740.4 hPa SW 4.8 mph /  7.7 km/h 6.4 mph /  10.3 km/h 92 % 0.0 in /  0 mm
21:47 16.7 °F /  -8.5 °C 15.4 °F /  -9.2 °C 1026.0 in /  34740.4 hPa SW 3.2 mph /  5.1 km/h 6.4 mph /  10.3 km/h 92 % 0.0 in /  0 mm
21:52 16.6 °F /  -8.6 °C 15.3 °F /  -9.3 °C 1026.0 in /  34740.4 hPa SW 4.8 mph /  7.7 km/h 6.4 mph /  10.3 km/h 92 % 0.0 in /  0 mm
21:57 16.6 °F /  -8.6 °C 15.3 °F /  -9.3 °C 1026.0 in /  34740.4 hPa SW 1.6 mph /  2.6 km/h 6.4 mph /  10.3 km/h 92 % 0.0 in /  0 mm
22:02 16.6 °F /  -8.6 °C 15.3 °F /  -9.3 °C 1026.0 in /  34740.4 hPa SW 3.2 mph /  5.1 km/h 4.8 mph /  7.7 km/h 92 % 0.0 in /  0 mm
22:07 16.5 °F /  -8.6 °C 15.2 °F /  -9.3 °C 1026.0 in /  34740.4 hPa SSW 3.2 mph /  5.1 km/h 6.4 mph /  10.3 km/h 92 % 0.0 in /  0 mm
22:12 16.4 °F /  -8.7 °C 15.3 °F /  -9.3 °C 1026.0 in /  34740.4 hPa SSW 3.2 mph /  5.1 km/h 6.4 mph /  10.3 km/h 93 % 0.0 in /  0 mm
22:17 16.4 °F /  -8.7 °C 15.3 °F /  -9.3 °C 1026.0 in /  34740.4 hPa SSW 1.6 mph /  2.6 km/h 6.4 mph /  10.3 km/h 93 % 0.0 in /  0 mm
22:27 16.3 °F /  -8.7 °C 15.2 °F /  -9.3 °C 1026.0 in /  34740.4 hPa Calm   4.8 mph /  7.7 km/h 93 % 0.0 in /  0 mm
22:32 16.2 °F /  -8.8 °C 15.2 °F /  -9.3 °C 1026.0 in /  34740.4 hPa Calm   3.2 mph /  5.1 km/h 94 % 0.0 in /  0 mm
22:37 16.2 °F /  -8.8 °C 15.2 °F /  -9.3 °C 1026.0 in /  34740.4 hPa SSW 1.6 mph /  2.6 km/h 3.2 mph /  5.1 km/h 94 % 0.0 in /  0 mm
22:42 16.2 °F /  -8.8 °C 15.2 °F /  -9.3 °C 1026.0 in /  34740.4 hPa SW 1.6 mph /  2.6 km/h 3.2 mph /  5.1 km/h 94 % 0.0 in /  0 mm
22:47 16.1 °F /  -8.8 °C 15.1 °F /  -9.4 °C 1026.0 in /  34740.4 hPa SW 1.6 mph /  2.6 km/h 3.2 mph /  5.1 km/h 94 % 0.0 in /  0 mm
22:52 16.1 °F /  -8.8 °C 15.1 °F /  -9.4 °C 1026.0 in /  34740.4 hPa SW 1.6 mph /  2.6 km/h 3.2 mph /  5.1 km/h 94 % 0.0 in /  0 mm
22:57 16.1 °F /  -8.8 °C 15.1 °F /  -9.4 °C 1026.3 in /  34750.5 hPa SSW 1.6 mph /  2.6 km/h 3.2 mph /  5.1 km/h 94 % 0.0 in /  0 mm
23:02 16.1 °F /  -8.8 °C 15.1 °F /  -9.4 °C 1026.3 in /  34750.5 hPa SW 1.6 mph /  2.6 km/h 3.2 mph /  5.1 km/h 94 % 0.0 in /  0 mm
23:12 15.9 °F /  -8.9 °C 15.1 °F /  -9.4 °C 1026.0 in /  34740.4 hPa SSW 1.6 mph /  2.6 km/h 4.8 mph /  7.7 km/h 95 % 0.0 in /  0 mm
23:17 15.9 °F /  -8.9 °C 15.1 °F /  -9.4 °C 1026.0 in /  34740.4 hPa SW 3.2 mph /  5.1 km/h 4.8 mph /  7.7 km/h 95 % 0.0 in /  0 mm
23:22 15.9 °F /  -8.9 °C 15.1 °F /  -9.4 °C 1026.3 in /  34750.5 hPa SSW 1.6 mph /  2.6 km/h 4.8 mph /  7.7 km/h 95 % 0.0 in /  0 mm
23:27 15.9 °F /  -8.9 °C 15.1 °F /  -9.4 °C 1026.0 in /  34740.4 hPa SSW 1.6 mph /  2.6 km/h 4.8 mph /  7.7 km/h 95 % 0.0 in /  0 mm
23:32 15.9 °F /  -8.9 °C 15.1 °F /  -9.4 °C 1026.0 in /  34740.4 hPa SSW 3.2 mph /  5.1 km/h 4.8 mph /  7.7 km/h 95 % 0.0 in /  0 mm
23:37 15.9 °F /  -8.9 °C 15.1 °F /  -9.4 °C 1026.0 in /  34740.4 hPa SW 3.2 mph /  5.1 km/h 6.4 mph /  10.3 km/h 95 % 0.0 in /  0 mm
23:42 15.9 °F /  -8.9 °C 15.3 °F /  -9.3 °C 1026.0 in /  34740.4 hPa SSW 4.8 mph /  7.7 km/h 6.4 mph /  10.3 km/h 96 % 0.0 in /  0 mm
23:47 16.0 °F /  -8.9 °C 15.4 °F /  -9.2 °C 1026.0 in /  34740.4 hPa SW 6.4 mph /  10.3 km/h 6.4 mph /  10.3 km/h 96 % 0.0 in /  0 mm
23:52 16.0 °F /  -8.9 °C 15.4 °F /  -9.2 °C 1026.0 in /  34740.4 hPa SW 4.8 mph /  7.7 km/h 9.7 mph /  15.6 km/h 96 % 0.0 in /  0 mm
23:57 16.0 °F /  -8.9 °C 15.4 °F /  -9.2 °C 1026.0 in /  34740.4 hPa SSW 1.6 mph /  2.6 km/h 9.7 mph /  15.6 km/h 96 % 0.0 in /  0 mm
Meteo18
Compliments of Weather Underground - 4 mb

Script developed by  Jim McMurry - jmcmurry@mwt.net Adapted for the template by  Wim van der Kuil - Leuven-Template.eu

You find our weather info also at:

European Weather Network

Weather Underground

Equipment we use:

Weather-station
Davis Vue

Weather-program
Meteobridge

Weather-server
Raspberry PI 2 B+

Provider
1 and 1

Davis Vue

Meteobridge

Raspberry PI 2 B+

1 and 1